Time,TemperatureF,DewpointF,PressureIn,WindDirection,WindDirectionDegrees,WindSpeedMPH,WindSpeedGustMPH,Humidity,HourlyPrecipIn,Conditions,Clouds,dailyrainin,SoftwareType,DateUTC
2013-05-16 00:02:00,59.0,52.0,-100.00,SW,232,0.0,22.0,80,0.00,,,-99.99,,2013-05-16 04:02:00,
2013-05-16 00:12:00,58.0,52.0,-100.00,SW,234,0.0,22.0,81,0.00,,,-99.99,,2013-05-16 04:12:00,
2013-05-16 00:23:00,57.0,50.0,-100.00,SW,234,0.0,22.0,82,0.00,,,-99.99,,2013-05-16 04:23:00,
2013-05-16 00:33:00,58.0,50.0,-100.00,West,273,1.0,1.0,81,0.00,,,-99.99,,2013-05-16 04:33:00,
2013-05-16 00:42:00,57.0,50.0,-100.00,West,262,1.0,1.0,82,0.00,,,-99.99,,2013-05-16 04:42:00,
2013-05-16 00:53:00,57.0,50.0,-100.00,West,273,0.0,1.0,82,0.00,,,-99.99,,2013-05-16 04:53:00,
2013-05-16 01:02:00,57.0,50.0,-100.00,WSW,255,0.0,1.0,82,0.00,,,-99.99,,2013-05-16 05:02:00,
2013-05-16 01:12:00,56.0,50.0,-100.00,SW,230,0.0,1.0,82,0.00,,,-99.99,,2013-05-16 05:12:00,
2013-05-16 01:22:00,56.0,50.0,-100.00,SW,214,1.0,1.0,82,0.00,,,-99.99,,2013-05-16 05:22:00,
2013-05-16 01:32:00,56.0,50.0,-100.00,SSW,196,1.0,1.0,84,0.00,,,-99.99,,2013-05-16 05:32:00,
2013-05-16 01:42:00,57.0,52.0,-100.00,WSW,252,1.0,1.0,84,0.00,,,-99.99,,2013-05-16 05:42:00,
2013-05-16 01:52:00,56.0,50.0,-100.00,SW,227,0.0,1.0,84,0.00,,,-99.99,,2013-05-16 05:52:00,
2013-05-16 02:02:00,55.0,50.0,-100.00,West,280,0.0,1.0,85,0.00,,,-99.99,,2013-05-16 06:02:00,
2013-05-16 02:12:00,56.0,50.0,-100.00,SSW,207,0.0,1.0,85,0.00,,,-99.99,,2013-05-16 06:12:00,
2013-05-16 02:23:00,56.0,50.0,-100.00,West,276,1.0,1.0,86,0.00,,,-99.99,,2013-05-16 06:23:00,
2013-05-16 02:33:00,55.0,50.0,-100.00,WSW,255,1.0,1.0,86,0.00,,,-99.99,,2013-05-16 06:33:00,
2013-05-16 02:43:00,55.0,50.0,-100.00,WSW,244,0.0,1.0,86,0.00,,,-99.99,,2013-05-16 06:43:00,
2013-05-16 02:53:00,55.0,50.0,-100.00,WSW,256,0.0,1.0,86,0.00,,,-99.99,,2013-05-16 06:53:00,
2013-05-16 03:02:00,55.0,50.0,-100.00,NNE,32,0.0,1.0,86,0.00,,,-99.99,,2013-05-16 07:02:00,
2013-05-16 03:12:00,54.0,50.0,-100.00,WSW,255,1.0,1.0,88,0.00,,,-99.99,,2013-05-16 07:12:00,
2013-05-16 03:24:00,55.0,50.0,-100.00,South,173,0.0,1.0,86,0.00,,,-99.99,,2013-05-16 07:24:00,
2013-05-16 03:34:00,55.0,50.0,-100.00,SW,221,0.0,1.0,85,0.00,,,-99.99,,2013-05-16 07:34:00,
2013-05-16 03:44:00,54.0,50.0,-100.00,SW,232,0.0,1.0,86,0.00,,,-99.99,,2013-05-16 07:44:00,
2013-05-16 03:54:00,54.0,48.0,-100.00,WSW,240,0.0,1.0,86,0.00,,,-99.99,,2013-05-16 07:54:00,
2013-05-16 04:03:00,54.0,48.0,-100.00,South,184,1.0,2.0,86,0.00,,,-99.99,,2013-05-16 08:03:00,
2013-05-16 04:13:00,54.0,50.0,-100.00,SSW,197,0.0,2.0,88,0.00,,,-99.99,,2013-05-16 08:13:00,
2013-05-16 04:24:00,54.0,50.0,-100.00,SW,225,1.0,2.0,89,0.00,,,-99.99,,2013-05-16 08:24:00,
2013-05-16 04:34:00,53.0,48.0,-100.00,SSW,211,0.0,2.0,86,0.00,,,-99.99,,2013-05-16 08:34:00,
2013-05-16 04:45:00,53.0,48.0,-100.00,WSW,255,1.0,2.0,88,0.00,,,-99.99,,2013-05-16 08:45:00,
2013-05-16 04:54:00,53.0,48.0,-100.00,WSW,244,1.0,2.0,88,0.00,,,-99.99,,2013-05-16 08:54:00,
2013-05-16 05:04:00,52.0,48.0,-100.00,WSW,255,0.0,2.0,89,0.00,,,-99.99,,2013-05-16 09:04:00,
2013-05-16 05:14:00,51.0,46.0,-100.00,WSW,238,0.0,2.0,89,0.00,,,-99.99,,2013-05-16 09:14:00,
2013-05-16 05:24:00,51.0,46.0,-100.00,SW,235,0.0,2.0,88,0.00,,,-99.99,,2013-05-16 09:24:00,
2013-05-16 05:35:00,50.0,46.0,-100.00,SSW,199,0.0,2.0,89,0.00,,,-99.99,,2013-05-16 09:35:00,
2013-05-16 05:45:00,50.0,46.0,-100.00,WSW,249,0.0,2.0,89,0.00,,,-99.99,,2013-05-16 09:45:00,
2013-05-16 05:55:00,50.0,46.0,-100.00,SW,221,0.0,2.0,89,0.00,,,-99.99,,2013-05-16 09:55:00,
2013-05-16 06:05:00,51.0,46.0,-100.00,WSW,251,1.0,2.0,89,0.00,,,-99.99,,2013-05-16 10:05:00,
2013-05-16 06:15:00,51.0,46.0,-100.00,SW,218,0.0,2.0,89,0.00,,,-99.99,,2013-05-16 10:15:00,
2013-05-16 06:24:00,51.0,46.0,-100.00,West,265,1.0,2.0,89,0.00,,,-99.99,,2013-05-16 10:24:00,
2013-05-16 06:36:00,51.0,48.0,-100.00,WSW,254,2.0,2.0,90,0.00,,,-99.99,,2013-05-16 10:36:00,
2013-05-16 06:45:00,50.0,46.0,-100.00,SW,235,1.0,2.0,89,0.00,,,-99.99,,2013-05-16 10:45:00,
2013-05-16 06:56:00,51.0,46.0,-100.00,SSW,206,0.0,2.0,89,0.00,,,-99.99,,2013-05-16 10:56:00,
2013-05-16 07:05:00,50.0,46.0,-100.00,WSW,237,1.0,2.0,89,0.00,,,-99.99,,2013-05-16 11:05:00,
2013-05-16 07:15:00,51.0,46.0,-100.00,WSW,248,1.0,2.0,89,0.00,,,-99.99,,2013-05-16 11:15:00,
2013-05-16 07:25:00,51.0,46.0,-100.00,WSW,244,1.0,2.0,86,0.00,,,-99.99,,2013-05-16 11:25:00,
2013-05-16 07:35:00,55.0,48.0,-100.00,West,269,2.0,2.0,84,0.00,,,-99.99,,2013-05-16 11:35:00,
2013-05-16 07:46:00,54.0,48.0,-100.00,WSW,254,1.0,2.0,84,0.00,,,-99.99,,2013-05-16 11:46:00,
2013-05-16 07:56:00,55.0,48.0,-100.00,SW,230,1.0,2.0,80,0.00,,,-99.99,,2013-05-16 11:56:00,
2013-05-16 08:06:00,57.0,48.0,-100.00,WSW,238,1.0,2.0,77,0.00,,,-99.99,,2013-05-16 12:06:00,
2013-05-16 08:13:00,58.0,50.0,-100.00,WSW,241,1.0,2.0,75,0.00,,,-99.99,,2013-05-16 12:13:00,
2013-05-16 08:23:00,59.0,48.0,-100.00,WSW,242,1.0,2.0,72,0.00,,,-99.99,,2013-05-16 12:23:00,
2013-05-16 08:35:00,61.0,50.0,-100.00,West,273,1.0,2.0,68,0.00,,,-99.99,,2013-05-16 12:35:00,
2013-05-16 08:45:00,63.0,48.0,-100.00,WNW,288,1.0,2.0,59,0.00,,,-99.99,,2013-05-16 12:45:00,
2013-05-16 08:53:00,63.0,48.0,-100.00,WNW,289,1.0,2.0,60,0.00,,,-99.99,,2013-05-16 12:53:00,
2013-05-16 09:04:00,64.0,46.0,-100.00,WSW,248,1.0,2.0,54,0.00,,,-99.99,,2013-05-16 13:04:00,
2013-05-16 09:12:00,66.0,46.0,-100.00,WNW,288,1.0,2.0,50,0.00,,,-99.99,,2013-05-16 13:12:00,
2013-05-16 09:27:00,66.0,45.0,-100.00,WSW,258,0.0,2.0,47,0.00,,,-99.99,,2013-05-16 13:27:00,
2013-05-16 09:35:00,67.0,46.0,-100.00,West,259,1.0,2.0,47,0.00,,,-99.99,,2013-05-16 13:35:00,
2013-05-16 09:43:00,68.0,46.0,-100.00,WSW,251,0.0,2.0,47,0.00,,,-99.99,,2013-05-16 13:43:00,
2013-05-16 09:55:00,70.0,46.0,-100.00,NNE,22,1.0,2.0,46,0.00,,,-99.99,,2013-05-16 13:55:00,
2013-05-16 10:05:00,68.0,46.0,-100.00,West,264,1.0,2.0,47,0.00,,,-99.99,,2013-05-16 14:05:00,
2013-05-16 10:16:00,70.0,46.0,-100.00,WNW,293,1.0,2.0,44,0.00,,,-99.99,,2013-05-16 14:16:00,
2013-05-16 10:23:00,69.0,45.0,-100.00,West,269,2.0,4.0,42,0.00,,,-99.99,,2013-05-16 14:23:00,
2013-05-16 10:37:00,70.0,43.0,-100.00,WNW,297,2.0,4.0,40,0.00,,,-99.99,,2013-05-16 14:37:00,
2013-05-16 10:47:00,72.0,46.0,-100.00,SW,224,1.0,4.0,40,0.00,,,-99.99,,2013-05-16 14:47:00,
2013-05-16 10:56:00,72.0,43.0,-100.00,West,273,4.0,6.0,37,0.00,,,-99.99,,2013-05-16 14:56:00,
2013-05-16 11:08:00,74.0,45.0,-100.00,NNW,336,2.0,6.0,36,0.00,,,-99.99,,2013-05-16 15:08:00,
2013-05-16 11:17:00,74.0,41.0,-100.00,WSW,252,2.0,6.0,32,0.00,,,-99.99,,2013-05-16 15:17:00,
2013-05-16 11:28:00,75.0,39.0,-100.00,NW,310,1.0,6.0,28,0.00,,,-99.99,,2013-05-16 15:28:00,
2013-05-16 11:40:00,75.0,36.0,-100.00,WNW,290,2.0,6.0,25,0.00,,,-99.99,,2013-05-16 15:40:00,
2013-05-16 11:50:00,75.0,37.0,-100.00,West,276,2.0,6.0,27,0.00,,,-99.99,,2013-05-16 15:50:00,
2013-05-16 12:00:00,76.0,36.0,-100.00,West,278,5.0,6.0,24,0.00,,,-99.99,,2013-05-16 16:00:00,
2013-05-16 12:09:00,74.0,37.0,-100.00,WNW,295,4.0,6.0,27,0.00,,,-99.99,,2013-05-16 16:09:00,
2013-05-16 12:20:00,75.0,37.0,-100.00,West,271,4.0,6.0,27,0.00,,,-99.99,,2013-05-16 16:20:00,
2013-05-16 12:30:00,76.0,36.0,-100.00,NW,326,2.0,6.0,24,0.00,,,-99.99,,2013-05-16 16:30:00,
2013-05-16 12:40:00,75.0,-99.9,-100.00,WNW,288,4.0,6.0,25,0.00,,,-99.99,,2013-05-16 16:40:00,
2013-05-16 12:51:00,76.0,39.0,-100.00,WSW,249,3.0,6.0,27,0.00,,,-99.99,,2013-05-16 16:51:00,
2013-05-16 13:00:00,77.0,39.0,-100.00,West,278,3.0,6.0,27,0.00,,,-99.99,,2013-05-16 17:00:00,
2013-05-16 13:10:00,77.0,39.0,-100.00,WNW,292,2.0,6.0,27,0.00,,,-99.99,,2013-05-16 17:10:00,
2013-05-16 13:20:00,78.0,41.0,-100.00,West,272,2.0,6.0,28,0.00,,,-99.99,,2013-05-16 17:20:00,
2013-05-16 13:31:00,77.0,41.0,-100.00,ENE,59,3.0,6.0,29,0.00,,,-99.99,,2013-05-16 17:31:00,
2013-05-16 13:40:00,76.0,36.0,-100.00,NW,304,6.0,8.0,25,0.00,,,-99.99,,2013-05-16 17:40:00,
2013-05-16 13:50:00,-999.0,-99.9,-100.00,West,269,6.0,10.0,25,0.00,,,-99.99,,2013-05-16 17:50:00,
2013-05-16 14:00:00,78.0,-99.9,-100.00,WSW,249,6.0,10.0,24,0.00,,,-99.99,,2013-05-16 18:00:00,
2013-05-16 14:10:00,76.0,39.0,-100.00,WNW,282,6.0,10.0,27,0.00,,,-99.99,,2013-05-16 18:10:00,
2013-05-16 14:20:00,76.0,37.0,-100.00,NNW,330,7.0,10.0,25,0.00,,,-99.99,,2013-05-16 18:20:00,
2013-05-16 14:30:00,-999.0,-99.9,-100.00,NNW,330,6.0,10.0,25,0.00,,,-99.99,,2013-05-16 18:30:00,
2013-05-16 14:40:00,-999.0,-99.9,-100.00,WNW,300,7.0,10.0,22,0.00,,,-99.99,,2013-05-16 18:40:00,
2013-05-16 14:50:00,-999.0,-99.9,-100.00,WNW,293,7.0,10.0,24,0.00,,,-99.99,,2013-05-16 18:50:00,
2013-05-16 15:00:00,-999.0,-99.9,-100.00,WNW,282,5.0,10.0,23,0.00,,,-99.99,,2013-05-16 19:00:00,
2013-05-16 15:10:00,79.0,-99.9,-100.00,WSW,258,4.0,10.0,20,0.00,,,-99.99,,2013-05-16 19:10:00,
2013-05-16 15:20:00,78.0,36.0,-100.00,WNW,302,5.0,10.0,22,0.00,,,-99.99,,2013-05-16 19:20:00,
2013-05-16 15:30:00,79.0,34.0,-100.00,West,269,5.0,10.0,20,0.00,,,-99.99,,2013-05-16 19:30:00,
2013-05-16 15:40:00,78.0,-99.9,-100.00,West,264,4.0,10.0,20,0.00,,,-99.99,,2013-05-16 19:40:00,
2013-05-16 15:50:00,-999.0,-99.9,-100.00,NW,304,6.0,12.0,23,0.00,,,-99.99,,2013-05-16 19:50:00,
2013-05-16 16:00:00,78.0,-99.9,-100.00,WNW,297,7.0,12.0,23,0.00,,,-99.99,,2013-05-16 20:00:00,
2013-05-16 16:10:00,-999.0,-99.9,-100.00,North,355,5.0,12.0,22,0.00,,,-99.99,,2013-05-16 20:10:00,
2013-05-16 16:20:00,79.0,-99.9,-100.00,North,352,3.0,12.0,20,0.00,,,-99.99,,2013-05-16 20:20:00,
2013-05-16 16:30:00,78.0,-99.9,-100.00,SW,228,6.0,12.0,18,0.00,,,-99.99,,2013-05-16 20:30:00,
2013-05-16 16:41:00,-999.0,-99.9,-100.00,West,262,6.0,12.0,18,0.00,,,-99.99,,2013-05-16 20:41:00,
2013-05-16 16:51:00,79.0,30.0,-100.00,NW,324,4.0,12.0,16,0.00,,,-99.99,,2013-05-16 20:51:00,
2013-05-16 17:00:00,79.0,30.0,-100.00,WNW,290,4.0,12.0,16,0.00,,,-99.99,,2013-05-16 21:00:00,
2013-05-16 17:10:00,78.0,-99.9,-100.00,WSW,242,4.0,12.0,19,0.00,,,-99.99,,2013-05-16 21:10:00,
2013-05-16 17:20:00,78.0,-99.9,-100.00,WNW,285,5.0,12.0,20,0.00,,,-99.99,,2013-05-16 21:20:00,
2013-05-16 17:29:00,78.0,32.0,-100.00,West,268,4.0,12.0,20,0.00,,,-99.99,,2013-05-16 21:29:00,
2013-05-16 17:38:00,78.0,36.0,-100.00,SW,216,2.0,12.0,23,0.00,,,-99.99,,2013-05-16 21:38:00,
2013-05-16 17:50:00,77.0,-99.9,-100.00,WSW,241,1.0,12.0,23,0.00,,,-99.99,,2013-05-16 21:50:00,
2013-05-16 18:00:00,-999.0,-99.9,-100.00,SSE,155,1.0,12.0,23,0.00,,,-99.99,,2013-05-16 22:00:00,
2013-05-16 18:08:00,76.0,34.0,-100.00,WNW,303,3.0,12.0,23,0.00,,,-99.99,,2013-05-16 22:08:00,
2013-05-16 18:21:00,76.0,34.0,-100.00,WSW,245,2.0,12.0,22,0.00,,,-99.99,,2013-05-16 22:21:00,
2013-05-16 18:31:00,76.0,36.0,-100.00,WNW,300,2.0,12.0,24,0.00,,,-99.99,,2013-05-16 22:31:00,
2013-05-16 18:40:00,75.0,39.0,-100.00,ENE,73,2.0,12.0,28,0.00,,,-99.99,,2013-05-16 22:40:00,
2013-05-16 18:51:00,74.0,37.0,-100.00,South,177,2.0,12.0,28,0.00,,,-99.99,,2013-05-16 22:51:00,
2013-05-16 19:00:00,75.0,36.0,-100.00,WNW,292,1.0,12.0,25,0.00,,,-99.99,,2013-05-16 23:00:00,
2013-05-16 19:06:00,75.0,37.0,-100.00,NE,36,1.0,12.0,27,0.00,,,-99.99,,2013-05-16 23:06:00,
2013-05-16 19:16:00,73.0,37.0,-100.00,East,98,1.0,12.0,29,0.00,,,-99.99,,2013-05-16 23:16:00,
2013-05-16 19:24:00,72.0,37.0,-100.00,NE,42,1.0,12.0,29,0.00,,,-99.99,,2013-05-16 23:24:00,
2013-05-16 19:35:00,72.0,37.0,-100.00,East,87,1.0,12.0,29,0.00,,,-99.99,,2013-05-16 23:35:00,
2013-05-16 19:45:00,72.0,39.0,-100.00,East,91,2.0,12.0,32,0.00,,,-99.99,,2013-05-16 23:45:00,
2013-05-16 19:54:00,71.0,39.0,-100.00,ESE,105,1.0,12.0,32,0.00,,,-99.99,,2013-05-16 23:54:00,
2013-05-16 20:02:00,71.0,39.0,-100.00,North,5,1.0,12.0,32,0.00,,,-99.99,,2013-05-17 00:02:00,
2013-05-16 20:13:00,69.0,37.0,-100.00,NE,38,1.0,12.0,33,0.00,,,-99.99,,2013-05-17 00:13:00,
2013-05-16 20:22:00,69.0,39.0,-100.00,NE,56,2.0,12.0,34,0.00,,,-99.99,,2013-05-17 00:22:00,
2013-05-16 20:33:00,68.0,41.0,-100.00,NE,48,1.0,12.0,40,0.00,,,-99.99,,2013-05-17 00:33:00,
2013-05-16 20:43:00,68.0,41.0,-100.00,ENE,69,1.0,12.0,38,0.00,,,-99.99,,2013-05-17 00:43:00,
2013-05-16 20:53:00,67.0,41.0,-100.00,NNE,33,1.0,12.0,40,0.00,,,-99.99,,2013-05-17 00:53:00,
2013-05-16 21:03:00,66.0,39.0,-100.00,ENE,66,1.0,12.0,40,0.00,,,-99.99,,2013-05-17 01:03:00,
2013-05-16 21:12:00,65.0,43.0,-100.00,SSW,207,1.0,12.0,45,0.00,,,-99.99,,2013-05-17 01:12:00,
2013-05-16 21:23:00,64.0,43.0,-100.00,SW,230,1.0,12.0,47,0.00,,,-99.99,,2013-05-17 01:23:00,
2013-05-16 21:32:00,63.0,43.0,-100.00,SW,235,0.0,12.0,49,0.00,,,-99.99,,2013-05-17 01:32:00,
2013-05-16 21:43:00,62.0,43.0,-100.00,SW,224,0.0,12.0,50,0.00,,,-99.99,,2013-05-17 01:43:00,
2013-05-16 21:52:00,61.0,43.0,-100.00,WSW,255,0.0,12.0,51,0.00,,,-99.99,,2013-05-17 01:52:00,
2013-05-16 22:02:00,61.0,43.0,-100.00,WSW,255,0.0,12.0,51,0.00,,,-99.99,,2013-05-17 02:02:00,
2013-05-16 22:11:00,60.0,43.0,-100.00,West,266,1.0,12.0,55,0.00,,,-99.99,,2013-05-17 02:11:00,
2013-05-16 22:22:00,59.0,43.0,-100.00,WSW,258,1.0,12.0,56,0.00,,,-99.99,,2013-05-17 02:22:00,
2013-05-16 22:33:00,58.0,45.0,-100.00,SW,230,0.0,12.0,60,0.00,,,-99.99,,2013-05-17 02:33:00,
2013-05-16 22:42:00,58.0,45.0,-100.00,SW,232,0.0,12.0,66,0.00,,,-99.99,,2013-05-17 02:42:00,
2013-05-16 22:53:00,58.0,46.0,-100.00,WSW,252,0.0,12.0,67,0.00,,,-99.99,,2013-05-17 02:53:00,
2013-05-16 23:02:00,58.0,46.0,-100.00,WSW,242,0.0,12.0,69,0.00,,,-99.99,,2013-05-17 03:02:00,
2013-05-16 23:11:00,57.0,45.0,-100.00,SW,220,0.0,12.0,67,0.00,,,-99.99,,2013-05-17 03:11:00,
2013-05-16 23:23:00,57.0,45.0,-100.00,WSW,248,0.0,12.0,67,0.00,,,-99.99,,2013-05-17 03:23:00,
2013-05-16 23:34:00,58.0,45.0,-100.00,WSW,248,1.0,12.0,66,0.00,,,-99.99,,2013-05-17 03:34:00,
2013-05-16 23:43:00,57.0,45.0,-100.00,SW,224,0.0,12.0,66,0.00,,,-99.99,,2013-05-17 03:43:00,
2013-05-16 23:53:00,58.0,45.0,-100.00,West,272,0.0,12.0,62,0.00,,,-99.99,,2013-05-17 03:53:00,